Deming, NM

12:47 PM MST on February 06, 2016 (GMT -0700)
Deming Municipal

Weather History for KDMN - September, 2013

Change the Weather History Date:

Saturday, September 28, 2013

  Actual Average Record
Temperature  
Mean Temperature 63 °F 69 °F  
Max Temperature 77 °F 84 °F 96 °F (2015)
Min Temperature 48 °F 53 °F 41 °F (1973)
Degree Days  
Heating Degree Days 4    
Growing Degree Days 12 (Base 50)    
Moisture  
Dew Point 29 °F    
Average Humidity 44    
Maximum Humidity 71    
Minimum Humidity 16    
Precipitation  
Precipitation 0.00 in 0.04 in 0.35 in (1983)
Month to date precipitation 3.07 1.22  
Year to date precipitation 9.31 8.81  
Sea Level Pressure  
Sea Level Pressure 29.99 in    
Wind  
Wind Speed 8 mph (East)    
Max Wind Speed 24 mph    
Max Gust Speed 32 mph    
Visibility 10 miles    
Events      
T = Trace of Precipitation, MM = Missing Value Source: NWS Daily Summary

Daily Weather History Graph

Daily Weather History Graph

Search for Another Location

Airport or City:

Trip Planner

Search our weather history database for the weather conditions in past years. The results will help you decide how hot, cold, wet, or windy it might be!

Date:

Astronomy

Sep. 28, 2013 Rise Set
Actual Time 7:03 AM MDT 6:59 PM MDT
Civil Twilight 6:38 AM MDT 7:23 PM MDT
Nautical Twilight 6:10 AM MDT 7:51 PM MDT
Astronomical Twilight 5:41 AM MDT 8:20 PM MDT
Moon 1:10 AM MDT (9/28) 3:03 PM MDT (9/28)
Length of Visible Light 12h 44m
Length of Day
11h 56m
Waning Crescent, 35% of the Moon is Illuminated
Sep 28
Waning Crescent
Oct 4
New
Oct 11
First Quarter
Oct 18
Full
Oct 26
Last Quarter

Hourly Weather History & Observations

Time (MDT) Temp. Dew Point Humidity Pressure Visibility Wind Dir Wind Speed Gust Speed Precip Events Conditions
12:53 AM 55.9 °F 39.9 °F 55% 29.87 in 10.0 mi WNW 5.8 mph - N/A   Partly Cloudy
1:53 AM 55.0 °F 39.9 °F 57% 29.87 in 10.0 mi Calm Calm - N/A   Clear
2:53 AM 52.0 °F 39.9 °F 63% 29.89 in 10.0 mi SSE 4.6 mph - N/A   Clear
3:53 AM 48.9 °F 39.0 °F 69% 29.91 in 10.0 mi WSW 4.6 mph - N/A   Clear
4:53 AM 48.0 °F 37.9 °F 68% 29.92 in 10.0 mi Calm Calm - N/A   Clear
5:53 AM 50.0 °F 37.0 °F 61% 29.96 in 10.0 mi South 3.5 mph - N/A   Clear
6:53 AM 50.0 °F 27.0 °F 41% 29.99 in 10.0 mi NE 5.8 mph - N/A   Clear
7:53 AM 57.0 °F 19.9 °F 24% 30.00 in 10.0 mi NE 11.5 mph - N/A   Clear
8:53 AM 62.1 °F 19.0 °F 19% 30.01 in 10.0 mi NNE 24.2 mph 29.9 mph N/A   Clear
9:53 AM 64.9 °F 19.9 °F 18% 30.04 in 10.0 mi ENE 18.4 mph 26.5 mph N/A   Clear
10:53 AM 68.0 °F 21.9 °F 17% 30.05 in 10.0 mi NE 17.3 mph 25.3 mph N/A   Clear
11:53 AM 71.1 °F 24.1 °F 17% 30.04 in 10.0 mi NE 12.7 mph 21.9 mph N/A   Clear
12:53 PM 73.0 °F 25.0 °F 17% 30.02 in 10.0 mi ENE 12.7 mph - N/A   Clear
1:53 PM 73.9 °F 26.1 °F 17% 30.00 in 10.0 mi ENE 9.2 mph - N/A   Clear
2:53 PM 75.0 °F 28.0 °F 18% 29.99 in 10.0 mi ESE 8.1 mph - N/A   Clear
3:53 PM 75.9 °F 27.0 °F 16% 29.99 in 10.0 mi Variable 4.6 mph - N/A   Clear
4:53 PM 75.9 °F 28.0 °F 17% 29.99 in 10.0 mi ESE 9.2 mph - N/A   Clear
5:53 PM 75.0 °F 27.0 °F 17% 29.99 in 10.0 mi Calm Calm - N/A   Clear
6:53 PM 69.1 °F 30.0 °F 23% 30.01 in 10.0 mi East 5.8 mph - N/A   Clear
7:53 PM 62.1 °F 30.9 °F 31% 30.02 in 10.0 mi ENE 6.9 mph - N/A   Clear
8:53 PM 57.9 °F 28.9 °F 33% 30.05 in 10.0 mi East 4.6 mph - N/A   Clear
9:53 PM 55.9 °F 28.9 °F 36% 30.07 in 10.0 mi ESE 5.8 mph - N/A   Clear
10:53 PM 54.0 °F 28.9 °F 38% 30.08 in 10.0 mi East 4.6 mph - N/A   Clear
11:53 PM 51.1 °F 28.0 °F 41% 30.09 in 10.0 mi East 5.8 mph - N/A   Clear